Погода в Ассиновской

Россия / Чеченская Республика     43°14′36″N   45°11′01″E
темп.,
°C
ветер,
м/с
пор.,
м/с
влажн.,
%
обл.,
%
осадки,
мм/ч
давл.,
гПа
погр.,
м
8 мая, сб
сб800:00+12юз22745 0.0 101912
03:00+11зюз11774 0.0 101911
06:00+13ююз00750 0.0 101832
09:00+18в35585 0.0 1017629
12:00+22в5543100 0.0 10141205
15:00+23всв554499 0.0 10131377
18:00+18всв3666100 0.0 1013167
21:00+14всв00775 0.1 101310
9 мая, вс
вс900:00+12зсз11841 0.0 101110
03:00+11з118545 0.0 101010
06:00+13зсз2280100 0.0 100962
09:00+19ссв1161100 0.0 1009488
12:00+23с33555 0.0 10081216
15:00+23ссз445436 0.0 10071299
18:00+10з101783100 2.6 1015902
21:00+8з71387100 4.4 10201157
10 мая, пн
пн1000:00+7з71289100 2.2 10221153
03:00+7зюз6108699 4.4 1023829
06:00+8зюз5979100 0.1 1023578
09:00+11з5754100 0.1 10221763
12:00+13зсз355093 0.1 10211646
15:00+14сз2246100 0.1 10191646
18:00+11ююз3468100 0.1 1020154
21:00+8зсз477853 0.1 1022211
11 мая, вт
вт1100:00+8зсз358195 0.0 1021241
03:00+8ссз1385100 0.3 1021182
06:00+8ююв128052 0.2 1020111
09:00+12в5662100 0.2 10201304
12:00+15всв4452100 0.0 10171447
15:00+17всв3348100 0.0 10161695
18:00+14всв5862100 0.0 1017391
21:00+10вюв257359 0.0 1019188
12 мая, ср
ср1200:00+7всв01905 0.0 101910
03:00+7зсз11911 0.0 101812
06:00+8сз11860 0.0 101891
09:00+14всв336716 0.0 1017809
12:00+18в345518 0.0 10161271
15:00+20всв335151 0.0 10141527
18:00+17всв4666100 0.0 1015247
21:00+12юв2379100 0.0 101553